Location: Allonne
(49.4086°N, 2.1143°E)
Time: 19:45:19
(UTC+00:00)

Cosmos 1709 Rocket - Pass Details

Date: 03 February 2023
Orbit: 948 x 1001 km, 82.9° (Epoch: 25 March)

Event Time Altitude Azimuth Distance (km) Brightness Sun altitude
Rises 19:31:32 0° 349° (N) 3,661 7.2 -26.3°
Reaches altitude 10° 19:34:03 10° 349° (N) 2,704 6.5 -26.8°
Maximum altitude 19:40:14 84° 263° (W) 965 3.9 -27.8°
Enters shadow 19:43:08 34° 178° (S) 1,528 4.9 -28.2°
